"startDT [UTC]","vpos","CH4 [ppm]","stdev(CH4) [ppm]","CO2 [ppm]","stdev(CO2) [ppm]","H2O_reported [%]","stdev(H2O_reported)","CavityPressure [torr]","CavityTemp [C]","OutletValve","CH4_dry [ppm]","CO2_dry [ppm]","DasTemp [C]","EtalonTemp [C]","WarmBoxTemp [C]","MPVPosition","T_ECpre [C]","T_EC1 [C]","T_EC2 [C]","p_inlet [hPa]","p_in [hPa]","p_out [hPa]","T_inlet [C]","RH_inlet [%]","dwpt_inlet [C]","T_vent [C]","RH_vent [%]","dwpt_vent [C]","flow_vent [l min-1]","flow_inlet [l min-1]","dwpt_sample [C]","T_room [C]"
2015-05-27 00:00:00,0.0,1.90379,0.00037,402.283,0.033,0.5936,0.0017,139.995,45.000,34131.31514,1.91514,405.208,32.187,45.068,45.000,0.00,0.09,-272.73,-272.79,-5,978,-3,22.4,16.5,-4.3,22.1,17.0,-4.2,5.73,1.96,-7.4,26.6
2015-05-27 00:01:00,0.0,1.90398,0.00032,402.276,0.015,0.5922,0.0021,139.999,45.000,34133.12300,1.91525,405.194,32.188,45.068,45.000,0.00,0.09,-272.72,-272.78,-5,977,-3,22.4,16.4,-4.3,22.1,17.0,-4.2,5.73,1.96,-7.4,26.6
2015-05-27 00:02:00,0.0,1.90409,0.00031,402.308,0.039,0.5874,0.0033,139.999,45.000,34132.73403,1.91532,405.201,32.188,45.068,45.000,0.00,0.09,-272.72,-272.77,-5,978,-3,22.4,16.2,-4.5,22.1,16.8,-4.3,5.73,1.96,-7.4,26.6
2015-05-27 00:03:00,0.0,1.90417,0.00034,402.342,0.039,0.5790,0.0022,140.003,45.000,34133.51379,1.91520,405.193,32.190,45.068,45.000,0.00,0.09,-272.72,-272.78,-5,978,-3,22.4,16.0,-4.7,22.1,16.6,-4.5,5.73,1.94,-7.4,26.6
2015-05-27 00:04:00,0.0,1.90427,0.00030,402.344,0.021,0.5763,0.0019,139.998,45.000,34132.40448,1.91525,405.184,32.221,45.068,45.000,0.00,0.09,-272.73,-272.79,-5,978,-3,22.4,15.9,-4.7,22.1,16.5,-4.6,5.73,1.92,-7.4,26.5
2015-05-27 00:05:00,0.0,1.90440,0.00027,402.335,0.029,0.5806,0.0018,140.003,45.000,34131.88846,1.91549,405.195,32.214,45.068,45.000,0.00,0.09,-272.72,-272.78,-5,979,-3,22.4,16.0,-4.6,22.1,16.5,-4.5,5.73,1.91,-7.4,26.5
2015-05-27 00:06:00,0.0,1.90442,0.00044,402.336,0.037,0.5787,0.0026,140.002,45.000,34131.56244,1.91540,405.186,32.211,45.068,45.000,0.00,0.09,-272.72,-272.78,-5,978,-3,22.4,16.0,-4.7,22.1,16.5,-4.5,5.73,1.91,-7.4,26.6
2015-05-27 00:07:00,0.0,1.90452,0.00035,402.390,0.021,0.5746,0.0017,139.999,45.000,34130.74418,1.91554,405.219,32.234,45.068,45.000,0.00,0.09,-272.72,-272.79,-5,978,-3,22.4,15.9,-4.8,22.1,16.4,-4.6,5.73,1.90,-7.4,26.6
2015-05-27 00:08:00,0.0,1.90513,0.00031,402.365,0.021,0.5733,0.0010,140.000,45.000,34128.11556,1.91601,405.190,32.225,45.068,45.000,0.00,0.09,-272.72,-272.78,-5,979,-3,22.4,15.8,-4.8,22.1,16.3,-4.6,5.73,1.91,-7.4,26.5
2015-05-27 00:09:00,0.0,1.90554,0.00036,402.411,0.025,0.5681,0.0023,139.996,45.000,34126.05744,1.91637,405.208,32.242,45.068,45.000,0.00,0.09,-272.72,-272.77,-5,978,-3,22.4,15.6,-4.9,22.1,16.2,-4.7,5.73,1.93,-7.4,26.6
2015-05-27 00:10:00,0.0,1.90559,0.00029,402.450,0.033,0.5659,0.0016,140.000,45.000,34128.41161,1.91640,405.236,32.244,45.068,45.000,0.00,0.09,-272.72,-272.78,-5,978,-3,22.4,15.6,-5.0,22.1,16.1,-4.8,5.73,1.95,-7.4,26.6
2015-05-27 00:11:00,0.0,1.90532,0.00048,402.422,0.024,0.5673,0.0023,140.000,45.000,34130.42407,1.91613,405.216,32.246,45.068,45.000,0.00,0.09,-272.72,-272.78,-5,979,-3,22.4,15.6,-5.0,22.1,16.1,-4.8,5.73,1.96,-7.4,26.6
2015-05-27 00:12:00,0.0,1.90538,0.00042,402.425,0.039,0.5700,0.0020,140.001,45.000,34128.81063,1.91626,405.229,32.250,45.068,45.000,0.00,0.09,-272.72,-272.78,-5,978,-3,22.4,15.7,-4.9,22.1,16.2,-4.8,5.73,1.96,-7.4,26.5
2015-05-27 00:13:00,0.0,1.90527,0.00029,402.401,0.035,0.5702,0.0012,139.998,45.001,34128.60682,1.91615,405.211,32.250,45.068,45.000,0.00,0.09,-272.72,-272.78,-5,978,-3,22.4,15.7,-4.9,22.1,16.2,-4.7,5.73,1.94,-7.4,26.6
2015-05-27 00:14:00,0.0,1.90542,0.00033,402.421,0.029,0.5690,0.0023,139.996,45.001,34130.01287,1.91627,405.223,32.250,45.068,45.000,0.00,0.09,-272.72,-272.78,-5,979,-3,22.4,15.7,-4.9,22.1,16.2,-4.8,5.73,1.93,-7.4,26.6
2015-05-27 00:15:00,0.0,1.90526,0.00039,402.419,0.023,0.5681,0.0020,140.000,45.001,34131.32869,1.91609,405.216,32.252,45.068,45.000,0.00,0.09,-272.72,-272.78,-5,978,-3,22.4,15.6,-5.0,22.1,16.1,-4.8,5.73,1.91,-7.4,26.6
2015-05-27 00:16:00,0.0,1.90572,0.00030,402.420,0.022,0.5685,0.0021,139.999,45.001,34132.58539,1.91654,405.221,32.251,45.068,45.000,0.00,0.09,-272.72,-272.77,-5,978,-3,22.5,15.7,-4.9,22.1,16.1,-4.8,5.73,1.90,-7.3,26.6
2015-05-27 00:17:00,0.0,1.90575,0.00033,402.436,0.032,0.5713,0.0015,139.996,45.000,34130.86734,1.91667,405.248,32.251,45.068,45.000,0.00,0.09,-272.73,-272.78,-5,979,-3,22.5,15.7,-4.8,22.1,16.2,-4.7,5.73,1.90,-7.4,26.6
2015-05-27 00:18:00,0.0,1.90583,0.00035,402.395,0.029,0.5728,0.0022,139.998,45.000,34131.56704,1.91670,405.216,32.251,45.068,45.000,0.00,0.09,-272.72,-272.78,-5,978,-3,22.4,15.8,-4.8,22.1,16.3,-4.7,5.73,1.91,-7.4,26.6
2015-05-27 00:19:00,0.0,1.90597,0.00028,402.405,0.023,0.5777,0.0016,139.999,45.000,34130.72913,1.91702,405.249,32.251,45.068,45.000,0.00,0.09,-272.72,-272.77,-5,978,-3,22.5,15.9,-4.7,22.1,16.4,-4.5,5.73,1.92,-7.4,26.6
2015-05-27 00:20:00,0.0,1.90591,0.00040,402.385,0.028,0.5772,0.0017,140.003,45.000,34134.19773,1.91695,405.229,32.252,45.068,45.000,0.00,0.09,-272.72,-272.78,-5,979,-3,22.5,15.9,-4.7,22.1,16.4,-4.5,5.73,1.94,-7.4,26.6
2015-05-27 00:21:00,0.0,1.90606,0.00038,402.377,0.030,0.5809,0.0023,139.997,45.000,34131.44447,1.91714,405.238,32.251,45.068,45.000,0.00,0.09,-272.72,-272.79,-5,978,-3,22.5,16.0,-4.6,22.1,16.5,-4.5,5.73,1.95,-7.3,26.7
2015-05-27 00:22:00,0.0,1.90606,0.00025,402.383,0.046,0.5793,0.0022,140.001,45.000,34132.93796,1.91713,405.237,32.251,45.068,45.000,0.00,0.09,-272.72,-272.78,-5,978,-3,22.5,15.9,-4.7,22.1,16.5,-4.5,5.73,1.96,-7.4,26.6
2015-05-27 00:23:00,0.0,1.90604,0.00049,402.408,0.023,0.5734,0.0027,139.995,45.000,34132.58481,1.91701,405.234,32.252,45.068,45.000,0.00,0.09,-272.72,-272.78,-5,979,-3,22.5,15.8,-4.8,22.1,16.3,-4.6,5.73,1.95,-7.3,26.6
2015-05-27 00:24:00,0.0,1.90638,0.00028,402.413,0.031,0.5732,0.0015,140.001,45.000,34130.31678,1.91730,405.236,32.255,45.068,45.000,0.00,0.09,-272.73,-272.78,-5,978,-3,22.5,15.8,-4.8,22.1,16.3,-4.6,5.73,1.95,-7.3,26.6
2015-05-27 00:25:00,0.0,1.90615,0.00034,402.402,0.021,0.5686,0.0020,139.998,45.000,34132.63897,1.91701,405.202,32.265,45.068,45.000,0.00,0.09,-272.72,-272.77,-5,978,-3,22.5,15.6,-4.9,22.1,16.2,-4.8,5.73,1.92,-7.3,26.6
2015-05-27 00:26:00,0.0,1.90617,0.00030,402.428,0.048,0.5642,0.0027,140.000,45.000,34132.87594,1.91697,405.207,32.264,45.068,45.000,0.00,0.09,-272.72,-272.77,-5,979,-3,22.5,15.5,-5.0,22.1,16.0,-4.9,5.73,1.91,-7.3,26.6
2015-05-27 00:27:00,0.0,1.90609,0.00044,402.439,0.034,0.5621,0.0018,139.998,45.000,34133.48136,1.91682,405.207,32.259,45.068,45.000,0.00,0.09,-272.72,-272.78,-5,978,-4,22.5,15.4,-5.1,22.1,15.9,-4.9,5.73,1.90,-7.3,26.6
2015-05-27 00:28:00,0.0,1.90627,0.00043,402.426,0.016,0.5625,0.0019,139.996,45.000,34134.25615,1.91698,405.194,32.259,45.068,45.000,0.00,0.09,-272.72,-272.78,-5,978,-3,22.5,15.5,-5.1,22.1,16.0,-4.9,5.73,1.90,-7.3,26.6
2015-05-27 00:29:00,0.0,1.90646,0.00018,402.451,0.029,0.5641,0.0023,139.997,45.000,34133.68736,1.91724,405.229,32.269,45.068,45.000,0.00,0.09,-272.72,-272.78,-5,979,-3,22.5,15.5,-5.1,22.1,16.0,-4.9,5.73,1.92,-7.3,26.6
2015-05-27 00:30:00,0.0,1.90624,0.00029,402.444,0.028,0.5670,0.0020,139.999,45.000,34134.34875,1.91707,405.234,32.251,45.068,45.000,0.00,0.09,-272.72,-272.78,-5,978,-3,22.5,15.6,-5.0,22.1,16.0,-4.8,5.73,1.93,-7.3,26.6
2015-05-27 00:31:00,0.0,1.90617,0.00029,402.453,0.023,0.5683,0.0021,139.997,45.000,34132.68301,1.91699,405.251,32.262,45.068,45.000,0.00,0.09,-272.72,-272.78,-5,979,-4,22.5,15.6,-5.0,22.1,16.1,-4.8,5.73,1.96,-7.3,26.6
2015-05-27 00:32:00,0.0,1.90626,0.00034,402.423,0.025,0.5709,0.0022,139.998,45.000,34132.17032,1.91718,405.235,32.287,45.068,45.000,0.00,0.09,-272.71,-272.78,-5,979,-3,22.5,15.7,-4.9,22.2,16.1,-4.7,5.73,1.96,-7.3,26.6
2015-05-27 00:33:00,0.0,1.90624,0.00038,402.388,0.032,0.5701,0.0029,139.996,45.000,34136.25075,1.91711,405.195,32.308,45.068,45.000,0.00,0.09,-272.72,-272.77,-5,978,-3,22.5,15.7,-4.9,22.1,16.2,-4.7,5.73,1.96,-7.3,26.6
2015-05-27 00:34:00,0.0,1.90609,0.00039,402.390,0.032,0.5698,0.0019,140.000,45.000,34139.76364,1.91699,405.197,32.304,45.068,45.000,0.00,0.09,-272.73,-272.79,-5,979,-3,22.5,15.6,-4.9,22.2,16.1,-4.7,5.73,1.94,-7.3,26.7
2015-05-27 00:35:00,0.0,1.90617,0.00030,402.399,0.037,0.5712,0.0015,139.998,45.000,34139.06117,1.91705,405.212,32.302,45.068,45.000,0.00,0.09,-272.72,-272.78,-5,979,-3,22.5,15.7,-4.9,22.2,16.2,-4.7,5.73,1.93,-7.3,26.7
2015-05-27 00:36:00,0.0,1.90611,0.00038,402.400,0.029,0.5674,0.0021,140.002,45.000,34141.67651,1.91695,405.194,32.296,45.068,45.000,0.00,0.09,-272.72,-272.78,-5,978,-3,22.5,15.5,-5.0,22.2,16.1,-4.8,5.73,1.91,-7.3,26.7
2015-05-27 00:37:00,0.0,1.90604,0.00039,402.408,0.028,0.5647,0.0020,139.995,45.000,34138.98579,1.91686,405.189,32.305,45.068,45.000,0.00,0.09,-272.72,-272.78,-5,979,-3,22.5,15.5,-5.0,22.2,16.0,-4.8,5.73,1.90,-7.3,26.6
2015-05-27 00:38:00,0.0,1.90586,0.00039,402.416,0.031,0.5638,0.0012,140.002,45.000,34140.04007,1.91661,405.193,32.313,45.068,45.000,0.00,0.09,-272.72,-272.78,-5,979,-3,22.5,15.4,-5.1,22.2,16.0,-4.9,5.73,1.90,-7.3,26.7
2015-05-27 00:39:00,0.0,1.90594,0.00026,402.398,0.034,0.5633,0.0014,140.002,45.000,34138.68092,1.91666,405.171,32.307,45.068,45.000,0.00,0.09,-272.71,-272.77,-5,978,-3,22.5,15.4,-5.1,22.2,15.9,-4.9,5.73,1.91,-7.3,26.7
2015-05-27 00:40:00,0.0,1.90635,0.00034,402.435,0.028,0.5616,0.0011,139.998,45.000,34135.75128,1.91705,405.199,32.312,45.068,45.000,0.00,0.09,-272.72,-272.78,-5,979,-3,22.5,15.4,-5.1,22.2,15.9,-4.9,5.73,1.92,-7.3,26.7
2015-05-27 00:41:00,0.0,1.90624,0.00038,402.420,0.028,0.5646,0.0020,139.999,45.000,34136.25245,1.91706,405.201,32.313,45.068,45.000,0.00,0.09,-272.73,-272.78,-5,978,-3,22.5,15.4,-5.0,22.2,15.9,-4.9,5.73,1.94,-7.3,26.7
2015-05-27 00:42:00,0.0,1.90631,0.00035,402.406,0.027,0.5640,0.0025,140.000,45.000,34136.80677,1.91706,405.183,32.314,45.068,45.000,0.00,0.09,-272.72,-272.78,-5,979,-3,22.5,15.4,-5.0,22.2,15.9,-4.9,5.73,1.95,-7.3,26.7
2015-05-27 00:43:00,0.0,1.90655,0.00031,402.416,0.028,0.5613,0.0018,139.997,45.000,34137.04157,1.91722,405.178,32.313,45.068,45.000,0.00,0.09,-272.71,-272.77,-5,979,-3,22.5,15.3,-5.1,22.2,15.9,-4.9,5.73,1.96,-7.3,26.7
2015-05-27 00:44:00,0.0,1.90623,0.00040,402.459,0.028,0.5590,0.0020,139.997,45.000,34136.06802,1.91693,405.211,32.313,45.068,45.000,0.00,0.09,-272.72,-272.79,-5,978,-3,22.5,15.3,-5.2,22.2,15.8,-5.0,5.73,1.95,-7.3,26.6
2015-05-27 00:45:00,0.0,1.90649,0.00018,402.443,0.028,0.5590,0.0023,140.000,45.000,34135.88785,1.91713,405.196,32.313,45.068,45.000,0.00,0.09,-272.72,-272.78,-5,979,-4,22.5,15.3,-5.2,22.2,15.8,-5.0,5.73,1.95,-7.3,26.6
2015-05-27 00:46:00,0.0,1.90651,0.00034,402.437,0.026,0.5616,0.0019,139.997,45.000,34136.04167,1.91726,405.201,32.319,45.068,45.000,0.00,0.09,-272.71,-272.78,-5,979,-3,22.5,15.3,-5.1,22.2,15.8,-5.0,5.73,1.93,-7.3,26.6
2015-05-27 00:47:00,0.0,1.90622,0.00020,402.420,0.020,0.5617,0.0019,140.003,45.000,34138.91419,1.91694,405.186,32.319,45.068,45.000,0.00,0.09,-272.72,-272.78,-5,978,-4,22.5,15.4,-5.1,22.2,15.9,-4.9,5.73,1.92,-7.3,26.6
2015-05-27 00:48:00,0.0,1.90620,0.00032,402.436,0.025,0.5618,0.0012,139.999,45.000,34136.51572,1.91689,405.201,32.323,45.068,45.000,0.00,0.09,-272.72,-272.79,-5,979,-3,22.5,15.4,-5.1,22.2,15.9,-4.9,5.73,1.90,-7.3,26.7
2015-05-27 00:49:00,0.0,1.90634,0.00050,402.395,0.027,0.5641,0.0020,140.000,45.000,34138.02971,1.91713,405.174,32.352,45.068,45.000,0.00,0.09,-272.72,-272.77,-5,979,-4,22.5,15.4,-5.0,22.2,15.9,-4.9,5.73,1.90,-7.3,26.7
2015-05-27 00:50:00,0.0,1.90615,0.00040,402.381,0.028,0.5663,0.0022,140.003,45.000,34139.26020,1.91699,405.167,32.332,45.068,45.000,0.00,0.31,-270.86,-271.51,-5,978,-4,22.5,15.5,-5.0,22.2,16.0,-4.8,5.43,2.02,-10.1,26.7
2015-05-27 00:51:00,0.0,1.90619,0.00048,402.403,0.025,0.5632,0.0018,140.001,45.000,34141.05407,1.91692,405.178,32.330,45.068,45.000,0.00,0.09,-272.73,-272.78,-5,979,-4,22.5,15.4,-5.1,22.2,15.9,-4.9,5.73,1.92,-7.3,26.7
2015-05-27 00:52:00,0.0,1.90635,0.00036,402.393,0.026,0.5625,0.0027,139.999,45.000,34140.36684,1.91705,405.161,32.329,45.068,45.000,0.00,0.09,-272.72,-272.78,-5,979,-4,22.5,15.4,-5.1,22.2,15.9,-4.9,5.73,1.94,-7.3,26.7
2015-05-27 00:53:00,0.0,1.90672,0.00024,402.430,0.034,0.5575,0.0030,140.000,45.000,34137.29367,1.91734,405.175,32.321,45.068,45.000,0.00,0.09,-272.72,-272.78,-5,978,-4,22.5,15.2,-5.2,22.2,15.7,-5.0,5.73,1.95,-7.3,26.7
2015-05-27 00:54:00,0.0,1.90682,0.00026,402.417,0.038,0.5609,0.0027,139.996,45.000,34136.73090,1.91755,405.179,32.330,45.068,45.000,0.00,0.09,-272.72,-272.78,-5,979,-3,22.5,15.3,-5.2,22.2,15.7,-5.0,5.73,1.96,-7.2,26.6
2015-05-27 00:55:00,0.0,1.90653,0.00044,402.394,0.029,0.5574,0.0022,139.997,45.000,34139.43069,1.91718,405.139,32.351,45.068,45.000,0.00,0.09,-272.72,-272.78,-5,979,-3,22.5,15.2,-5.2,22.2,15.7,-5.0,5.73,1.95,-7.2,26.5
2015-05-27 00:56:00,0.0,1.90652,0.00037,402.393,0.034,0.5512,0.0028,139.998,45.000,34140.49226,1.91702,405.106,32.365,45.068,45.000,0.00,0.09,-272.72,-272.77,-6,978,-4,22.6,15.0,-5.4,22.2,15.5,-5.2,5.73,1.94,-7.2,26.6
2015-05-27 00:57:00,0.0,1.90687,0.00030,402.445,0.015,0.5458,0.0021,139.996,45.000,34138.65018,1.91726,405.131,32.366,45.068,45.000,0.00,0.09,-272.72,-272.78,-5,979,-3,22.6,14.9,-5.5,22.2,15.4,-5.3,5.73,1.92,-7.2,26.6
2015-05-27 00:58:00,0.0,1.90665,0.00026,402.470,0.039,0.5448,0.0016,139.999,45.000,34142.36110,1.91709,405.148,32.369,45.068,45.000,0.00,0.09,-272.73,-272.78,-5,979,-3,22.6,14.8,-5.5,22.3,15.3,-5.4,5.73,1.91,-7.3,26.6
2015-05-27 00:59:00,0.0,1.90689,0.00035,402.468,0.044,0.5512,0.0019,140.000,45.000,34139.15125,1.91737,405.182,32.372,45.068,45.000,0.00,0.09,-272.71,-272.78,-5,978,-4,22.6,15.0,-5.4,22.3,15.4,-5.3,5.73,1.90,-7.2,26.6
2015-05-27 01:00:00,0.0,1.90692,0.00044,402.453,0.034,0.5552,0.0024,139.998,45.000,34138.79249,1.91755,405.184,32.358,45.068,45.000,0.00,0.09,-272.72,-272.77,-5,979,-4,22.6,15.1,-5.2,22.3,15.6,-5.1,5.73,1.90,-7.2,26.6
2015-05-27 01:01:00,0.0,1.90680,0.00044,402.408,0.040,0.5618,0.0023,140.004,45.000,34140.29942,1.91751,405.174,32.372,45.068,45.000,0.00,0.09,-272.73,-272.78,-5,979,-4,22.6,15.3,-5.1,22.3,15.8,-5.0,5.73,1.91,-7.2,26.6
2015-05-27 01:02:00,0.0,1.90651,0.00041,402.409,0.022,0.5636,0.0016,139.998,45.000,34140.62789,1.91728,405.185,32.373,45.068,45.000,0.00,0.09,-272.72,-272.78,-5,978,-4,22.6,15.4,-5.1,22.3,15.9,-4.9,5.73,1.93,-7.2,26.6
2015-05-27 01:03:00,0.0,1.90648,0.00026,402.396,0.028,0.5631,0.0022,139.997,45.000,34138.59229,1.91722,405.169,32.375,45.068,45.000,0.00,0.09,-272.72,-272.77,-5,979,-4,22.6,15.3,-5.1,22.3,15.8,-4.9,5.73,1.94,-7.2,26.7
2015-05-27 01:04:00,0.0,1.90680,0.00029,402.402,0.025,0.5593,0.0020,139.996,45.000,34138.36005,1.91744,405.153,32.375,45.068,45.000,0.00,0.09,-272.73,-272.78,-5,979,-4,22.6,15.2,-5.2,22.3,15.7,-5.0,5.73,1.96,-7.2,26.7
2015-05-27 01:05:00,0.0,1.90683,0.00033,402.425,0.036,0.5600,0.0017,140.000,45.000,34141.45018,1.91750,405.180,32.375,45.068,45.000,0.00,0.09,-272.73,-272.78,-5,979,-4,22.6,15.2,-5.2,22.3,15.7,-5.0,5.73,1.95,-7.2,26.7
2015-05-27 01:06:00,0.0,1.90657,0.00046,402.444,0.028,0.5546,0.0024,139.999,45.000,34141.03691,1.91720,405.176,32.375,45.068,45.000,0.00,0.09,-272.72,-272.78,-5,979,-4,22.6,15.1,-5.3,22.3,15.6,-5.1,5.73,1.95,-7.2,26.7
2015-05-27 01:07:00,0.0,1.90700,0.00033,402.469,0.032,0.5509,0.0024,140.000,45.000,34140.14352,1.91754,405.181,32.383,45.068,45.000,0.00,0.09,-272.72,-272.78,-5,979,-3,22.6,15.0,-5.4,22.3,15.4,-5.2,5.73,1.94,-7.2,26.7
2015-05-27 01:08:00,0.0,1.90719,0.00034,402.497,0.022,0.5472,0.0015,139.999,45.000,34138.16806,1.91758,405.190,32.392,45.068,45.000,0.00,0.09,-272.72,-272.78,-5,979,-4,22.6,14.9,-5.5,22.3,15.3,-5.3,5.73,1.92,-7.2,26.7
2015-05-27 01:09:00,0.0,1.90726,0.00024,402.487,0.028,0.5459,0.0020,140.001,45.000,34140.57192,1.91769,405.175,32.418,45.068,45.000,0.00,0.09,-272.72,-272.77,-5,979,-4,22.6,14.8,-5.5,22.3,15.3,-5.4,5.73,1.90,-7.2,26.7
2015-05-27 01:10:00,0.0,1.90703,0.00033,402.458,0.039,0.5458,0.0026,140.003,45.000,34144.55931,1.91744,405.144,32.424,45.068,45.000,0.00,0.09,-272.72,-272.77,-5,979,-4,22.6,14.8,-5.5,22.3,15.2,-5.4,5.73,1.90,-7.2,26.7
2015-05-27 01:11:00,0.0,1.90720,0.00043,402.445,0.022,0.5489,0.0017,139.999,45.000,34142.90502,1.91765,405.144,32.436,45.068,45.000,0.00,0.09,-272.72,-272.78,-5,979,-4,22.6,14.9,-5.4,22.3,15.3,-5.3,5.73,1.90,-7.2,26.8
2015-05-27 01:12:00,0.0,1.90750,0.00038,402.444,0.035,0.5532,0.0018,139.997,45.000,34140.59275,1.91811,405.168,32.437,45.068,45.000,0.00,0.09,-272.73,-272.78,-5,979,-4,22.6,15.0,-5.3,22.3,15.5,-5.2,5.73,1.91,-7.2,26.7
2015-05-27 01:13:00,0.0,1.90736,0.00044,402.498,0.040,0.5460,0.0023,140.000,45.000,34143.83261,1.91773,405.186,32.432,45.068,45.000,0.00,0.09,-272.71,-272.78,-5,978,-4,22.6,14.8,-5.5,22.3,15.3,-5.3,5.73,1.93,-7.2,26.7
2015-05-27 01:14:00,0.0,1.90728,0.00030,402.482,0.039,0.5442,0.0016,140.001,45.000,34144.52448,1.91768,405.159,32.427,45.068,45.000,0.00,0.09,-272.72,-272.78,-5,979,-4,22.6,14.8,-5.5,22.3,15.2,-5.4,5.73,1.94,-7.2,26.7
2015-05-27 01:15:00,0.0,1.90715,0.00044,402.498,0.026,0.5466,0.0014,139.997,45.000,34143.71681,1.91755,405.187,32.433,45.068,45.000,0.00,0.09,-272.72,-272.79,-5,979,-4,22.6,14.8,-5.5,22.3,15.2,-5.4,5.73,1.96,-7.2,26.8
2015-05-27 01:16:00,0.0,1.90708,0.00026,402.462,0.034,0.5479,0.0015,139.999,45.000,34145.28436,1.91757,405.158,32.431,45.068,45.000,0.00,0.09,-272.71,-272.78,-5,978,-4,22.6,14.9,-5.5,22.3,15.3,-5.3,5.73,1.96,-7.2,26.7
2015-05-27 01:17:00,0.0,1.90701,0.00043,402.491,0.018,0.5502,0.0019,139.999,45.000,34144.66168,1.91753,405.200,32.437,45.068,45.000,0.00,0.09,-272.72,-272.78,-5,979,-4,22.6,14.9,-5.4,22.3,15.3,-5.3,5.73,1.94,-7.2,26.8
2015-05-27 01:18:00,0.0,1.90687,0.00058,402.501,0.037,0.5455,0.0022,139.999,45.000,34145.98663,1.91720,405.185,32.436,45.068,45.000,0.00,0.09,-272.72,-272.78,-5,979,-3,22.7,14.8,-5.5,22.3,15.2,-5.4,5.73,1.93,-7.2,26.8
2015-05-27 01:19:00,0.0,1.90699,0.00029,402.517,0.035,0.5479,0.0023,140.002,45.000,34143.56045,1.91753,405.215,32.436,45.068,45.000,0.00,0.09,-272.72,-272.77,-5,979,-4,22.6,14.8,-5.5,22.4,15.3,-5.3,5.73,1.91,-7.2,26.8
2015-05-27 01:20:00,0.0,1.90733,0.00042,402.521,0.032,0.5439,0.0016,140.003,45.000,34143.63197,1.91771,405.197,32.437,45.068,45.000,0.00,0.09,-272.72,-272.77,-5,979,-4,22.6,14.7,-5.6,22.3,15.2,-5.4,5.73,1.90,-7.1,26.8
2015-05-27 01:21:00,0.0,1.90724,0.00050,402.492,0.039,0.5489,0.0020,140.002,45.000,34144.42621,1.91767,405.193,32.433,45.068,45.000,0.00,0.09,-272.73,-272.78,-5,979,-4,22.6,14.8,-5.5,22.3,15.3,-5.3,5.73,1.90,-7.2,26.7
2015-05-27 01:22:00,0.0,1.90720,0.00035,402.475,0.040,0.5467,0.0018,140.001,45.000,34144.29046,1.91764,405.166,32.429,45.068,45.000,0.00,0.09,-272.72,-272.78,-5,979,-4,22.7,14.8,-5.5,22.3,15.3,-5.3,5.73,1.91,-7.1,26.7
2015-05-27 01:23:00,0.0,1.90740,0.00039,402.508,0.033,0.5437,0.0025,139.999,45.000,34143.87358,1.91779,405.182,32.431,45.068,45.000,0.00,0.09,-272.72,-272.77,-5,980,-4,22.7,14.7,-5.6,22.3,15.2,-5.4,5.73,1.92,-7.1,26.7
2015-05-27 01:24:00,0.0,1.90725,0.00037,402.544,0.024,0.5426,0.0012,139.996,45.000,34141.99465,1.91764,405.217,32.438,45.068,45.000,0.00,0.09,-272.72,-272.78,-5,979,-4,22.7,14.7,-5.6,22.3,15.1,-5.5,5.73,1.94,-7.1,26.8
2015-05-27 01:25:00,0.0,1.90703,0.00034,402.512,0.035,0.5447,0.0023,139.997,45.000,34143.86817,1.91738,405.192,32.440,45.068,45.000,0.00,0.09,-272.72,-272.78,-5,979,-4,22.7,14.7,-5.5,22.3,15.2,-5.4,5.73,1.95,-7.1,26.8
2015-05-27 01:26:00,0.0,1.90716,0.00031,402.533,0.030,0.5424,0.0015,139.998,45.000,34145.45851,1.91753,405.204,32.438,45.068,45.000,0.00,0.09,-272.71,-272.77,-6,980,-4,22.7,14.7,-5.6,22.3,15.1,-5.4,5.73,1.95,-7.1,26.7
2015-05-27 01:27:00,0.0,1.90689,0.00020,402.514,0.035,0.5429,0.0017,140.003,45.000,34148.39550,1.91726,405.184,32.440,45.068,45.000,0.00,0.09,-272.72,-272.77,-5,979,-4,22.7,14.7,-5.6,22.4,15.1,-5.4,5.73,1.96,-7.1,26.8
2015-05-27 01:28:00,0.0,1.90691,0.00039,402.539,0.025,0.5417,0.0012,140.002,45.000,34150.33652,1.91724,405.206,32.438,45.068,45.000,0.00,0.09,-272.72,-272.78,-7,979,-3,22.7,14.6,-5.6,22.4,15.1,-5.5,5.73,1.94,-7.1,26.8
2015-05-27 01:29:00,0.0,1.90698,0.00026,402.518,0.035,0.5430,0.0015,139.998,45.000,34148.47673,1.91734,405.189,32.438,45.068,45.000,0.00,0.09,-272.72,-272.78,-5,980,-4,22.7,14.7,-5.6,22.4,15.1,-5.4,5.73,1.92,-7.1,26.8
2015-05-27 01:30:00,0.0,1.90683,0.00025,402.481,0.029,0.5470,0.0011,140.002,45.000,34149.19829,1.91725,405.173,32.439,45.068,45.000,0.00,0.09,-272.72,-272.78,-7,979,-1,22.7,14.8,-5.5,22.4,15.2,-5.4,5.73,1.90,-7.1,26.8
2015-05-27 01:31:00,0.0,1.90706,0.00047,402.474,0.041,0.5461,0.0016,140.000,45.000,34147.97111,1.91748,405.163,32.454,45.068,45.000,0.00,0.09,-272.72,-272.78,-5,979,-6,22.7,14.8,-5.5,22.4,15.2,-5.3,5.73,1.89,-7.1,26.9
2015-05-27 01:32:00,0.0,1.90694,0.00019,402.502,0.027,0.5473,0.0019,139.997,45.000,34145.41117,1.91740,405.193,32.459,45.068,45.000,0.00,0.09,-272.72,-272.78,-3,981,-4,22.7,14.8,-5.5,22.4,15.2,-5.3,5.73,1.90,-7.1,26.8
2015-05-27 01:33:00,0.0,1.90700,0.00042,402.493,0.039,0.5454,0.0025,139.997,45.000,34147.01788,1.91739,405.181,32.482,45.068,45.000,0.00,0.09,-272.71,-272.77,-6,977,-5,22.7,14.7,-5.5,22.4,15.2,-5.4,5.73,1.91,-7.1,26.8
2015-05-27 01:34:00,0.0,1.90712,0.00041,402.499,0.029,0.5439,0.0021,140.002,45.000,34149.31923,1.91748,405.175,32.460,45.068,45.000,0.00,0.09,-272.72,-272.78,-6,977,-2,22.7,14.7,-5.5,22.4,15.1,-5.4,5.73,1.93,-7.1,26.8
2015-05-27 01:35:00,0.0,1.90698,0.00040,402.530,0.024,0.5422,0.0020,140.000,45.000,34149.61154,1.91733,405.197,32.451,45.068,45.000,0.00,0.09,-272.73,-272.78,-5,981,-4,22.7,14.6,-5.6,22.4,15.0,-5.5,5.73,1.94,-7.1,26.8
2015-05-27 01:36:00,0.0,1.90724,0.00032,402.564,0.034,0.5404,0.0020,140.000,45.000,34147.72318,1.91757,405.224,32.443,45.068,45.000,0.00,0.09,-272.72,-272.77,-5,980,-4,22.7,14.6,-5.6,22.4,15.0,-5.5,5.73,1.96,-7.1,26.8
2015-05-27 01:37:00,0.0,1.90726,0.00029,402.550,0.028,0.5428,0.0017,140.001,45.000,34149.57148,1.91759,405.220,32.438,45.068,45.000,0.00,0.09,-272.72,-272.78,-5,979,-4,22.7,14.6,-5.6,22.4,15.1,-5.5,5.73,1.95,-7.1,26.8
2015-05-27 01:38:00,0.0,1.90713,0.00025,402.540,0.023,0.5440,0.0019,140.001,45.000,34149.72588,1.91752,405.216,32.444,45.068,45.000,0.00,0.09,-272.72,-272.78,-5,979,-4,22.7,14.7,-5.5,22.4,15.1,-5.4,5.73,1.95,-7.1,26.9
2015-05-27 01:39:00,0.0,1.90703,0.00037,402.529,0.024,0.5463,0.0021,140.003,45.000,34151.54099,1.91743,405.219,32.438,45.068,45.000,0.00,0.09,-272.72,-272.78,-5,979,-4,22.7,14.7,-5.5,22.4,15.2,-5.4,5.73,1.93,-7.1,26.8
2015-05-27 01:40:00,0.0,1.90711,0.00025,402.531,0.028,0.5446,0.0021,140.001,45.000,34150.93696,1.91754,405.210,32.438,45.068,45.000,0.00,0.09,-272.71,-272.77,-5,979,-4,22.7,14.7,-5.5,22.4,15.1,-5.4,5.73,1.91,-7.1,26.8
2015-05-27 01:41:00,0.0,1.90752,0.00041,402.525,0.025,0.5462,0.0021,139.997,45.000,34150.76600,1.91789,405.214,32.439,45.068,45.000,0.00,0.09,-272.72,-272.78,-5,979,-4,22.7,14.7,-5.5,22.4,15.2,-5.4,5.73,1.90,-7.1,26.8
2015-05-27 01:42:00,0.0,1.90722,0.00025,402.536,0.028,0.5367,0.0023,139.998,45.000,34151.16073,1.91753,405.180,32.442,45.068,45.000,0.00,0.09,-272.72,-272.78,-5,979,-4,22.7,14.5,-5.7,22.4,14.9,-5.6,5.73,1.89,-7.1,26.9
2015-05-27 01:43:00,0.0,1.90730,0.00042,402.592,0.038,0.5307,0.0019,140.002,45.000,34151.99438,1.91742,405.204,32.461,45.068,45.000,0.00,0.09,-272.72,-272.77,-5,980,-4,22.7,14.3,-5.9,22.4,14.7,-5.7,5.73,1.90,-7.1,26.9
2015-05-27 01:44:00,0.0,1.90717,0.00039,402.554,0.031,0.5339,0.0027,139.999,45.000,34151.73317,1.91731,405.179,32.476,45.068,45.000,0.00,0.09,-272.72,-272.78,-5,980,-4,22.7,14.4,-5.8,22.4,14.8,-5.7,5.73,1.92,-7.1,26.8
2015-05-27 01:45:00,0.0,1.90737,0.00029,402.567,0.036,0.5413,0.0018,139.999,45.000,34151.09989,1.91771,405.227,32.486,45.068,45.000,0.00,0.09,-272.73,-272.78,-5,979,-4,22.7,14.6,-5.6,22.4,15.0,-5.5,5.73,1.94,-7.1,26.8
2015-05-27 01:46:00,0.0,1.90725,0.00025,402.520,0.041,0.5438,0.0032,140.000,45.000,34152.62536,1.91763,405.199,32.495,45.068,45.000,0.00,0.09,-272.72,-272.78,-6,980,-4,22.7,14.7,-5.5,22.4,15.1,-5.4,5.73,1.95,-7.0,26.8